User: anonymous   Login
Location: Caltech
(34.1382°N, 118.1253°W)
Time: 18:53:05
(UTC-07:00)
Language:

Tiros 1 despin weight - Orbit

View from above orbital plane
View from above orbital plane
View from above satellite
View from above satellite

Ground track
Ground track

The orbit data is extracted from the following two-line orbital elements,

1   115U 60002D   17172.30295159 -.00000052 +00000-0 +21142-4 0  9999
2   115 048.1661 124.1490 0034139 117.1692 243.2707 14.83089778029677
Epoch (UTC): 21 June 2017 07:16:15
Eccentricity: 0.0034139
inclination: 48.1661°
perigee height: 596 km
apogee height: 643 km
right ascension of ascending node: 124.1490°
argument of perigee: 117.1692°
revolutions per day: 14.83089778
mean anomaly at epoch: 243.2707°
orbit number at epoch: 2967

The dashed part of the orbit path shows where the satellite is in the earth's shadow,  

DLR